Starlink 32006

operational
NORAD ID: 60029 Int'l Des: 2024-111 Owner: SPXS Country: US Constellation: starlink
LEOCIRCULAR

About Starlink 32006

Description loading...

Live Position

Loading 3D Globe...

Upcoming Passes

Altitude History

Altitude vs Time

uPlot chart will show altitude changes over time

Two-Line Element Set

1 60029U 24111P 26019.18210940 -.00000502 00000-0 -48210-5 0 9998
2 60029 53.1608 305.5888 0001183 77.2397 282.8736 15.30200418 91456
Epoch: Jan 19, 2026 • Age: 8 hours

Current Status

Altitude 480.7 km
Velocity 7.63 km/s
Sub-Earth Point 52.22°N, 70.73°E
Launch Date Jun 8, 2024
Age 1.6 years
Type internet

Technical Details

Classification Payload
Mass 730.00 kg
Dry Mass 700.00 kg
Total Mass 730.00 kg
Length 0.30 m
Diameter 4.10 m
Span 29.00 m
Shape Box + pan
Manufacturer SPXS
Bus Type Starlink V2M
Phase Status In Orbit
Owner/State SPXS/US

Large Constellations

Loading constellations...